www.pogodaiklimat.ru

Погода и климат >> Архив погоды >> Мексика >> Merida


АРХИВ ПОГОДЫ в Merida

Время (UTC), дата Ветер
(напр.,м/с)
 
Видим.   Явления Облачность Т
(С)
Тd
(С)
f
(%)
Тe
(С)
Тes
(С)
Комфортность P
(гПа)
Po
(гПа)
Тmin
(С)
Tmax
(С)
R
(мм)
R24
(мм)
S
(см)
09 9.08 В 1 5000 м 1/0 2000 м
[Ac trans]
+23.3 +22.7 96 +32 +32 очень
душно
1015.8 1014.6
12 9.08 ЮВ 1 10 км 9/1 600 м
[Cu med, cong Ac As]
+24.0 +23.6 98 +33 +33 очень
душно
1016.3 1015.0 +21.8 +35.5
15 9.08 ЮВ 2 10 км 9/0 2000 м
[Ac As]
+26.4 +24.4 89 +37 +41 очень
душно
1017.9 1016.6
18 9.08 В 2 10 км 9/3 600 м
[Cu hum Ac trans]
+31.0 +27.6 82 +50 +57 опасность
перегрева
1016.6 1015.3 +21.8 +31.0
21 9.08 ЮВ 2 10 км 10/6 600 м
[Cu hum Ac trans]
+31.2 +27.4 80 +50 +52 опасность
перегрева
1015.4 1014.1
00 10.08 В 2 10 км 9/0 2000 м
[Ac trans]
+29.4 +27.9 92 +49 +49 опасность
перегрева
1015.9 1014.6 +22.7 +32.5
03 10.08 В 1 5000 м 10/4 600 м
[Cu hum Ac trans]
+28.0 +26.9 94 +44 +44 опасность
перегрева
1017.6 1016.3
06 10.08 В 2 5000 м 8/0 2000 м
[Ac As]
+27.3 +24.8 86 +39 +39 очень
душно
1017.7 1016.5 +22.7 +32.5
09 10.08 В 1 5000 м 1/1 600 м
[Cu hum]
+26.0 +25.1 95 +37 +37 очень
душно
1016.0 1014.7
12 10.08 ЮВ 2 10 км дымка 10/10 600 м
[St]
+25.6 +25.3 98 +37 +37 очень
душно
1016.1 1014.8 +25.0 +32.5
15 10.08 В 3 10 км 10/8 600 м
[Sc Ac trans]
+28.8 +27.1 91 +46 +47 опасность
перегрева
1017.1 1015.8
18 10.08 ЮВ 2 10 км 6/5 600 м
[Cu hum Ac trans]
+33.6 +24.9 60 +47 +57 опасность
перегрева
1016.3 1015.0 +25.0 +33.6
21 10.08 В 2 10 км 6/4 600 м
[Cu hum Ac trans]
+35.2 +21.5 45 +58 +63 опасность
перегрева
1014.4 1013.2
00 11.08 ЮВ 2 10 км 8/0 2000 м
[Ac trans Ci fib]
+32.4 +20.3 49 +39 +39 очень
душно
1014.5 1013.2 +25.0 +35.2
03 11.08 ЮВ 3 5000 м 3/0 2000 м
[Ac trans]
+30.6 +24.4 70 +43 +43 опасность
перегрева
1016.3 1015.1
06 11.08 ЮВ 2 5000 м 6/0 2000 м
[Ac As]
+27.8 +25.1 85 +40 +40 очень
душно
1017.0 1015.8 +25.0 +35.2
09 11.08 В 1 5000 м 8/0 2000 м
[Ac trans]
+26.2 +25.1 94 +38 +38 очень
душно
1016.0 1014.7
12 11.08 ЮВ 1 10 км 5/1 600 м
[Cu hum Ac trans]
+25.4 +25.1 98 +36 +36 очень
душно
1015.9 1014.7 +25.0 +35.2
15 11.08 ЮВ 2 10 км 8/1 600 м
[Cu hum Ac trans Ci fib]
+29.8 +27.0 85 +47 +54 опасность
перегрева
1017.7 1016.4
18 11.08 В 2 10 км мгла 5/1 600 м
[Cu hum Ac trans]
+33.4 +28.7 76 +56 +70 опасность
перегрева
1016.4 1015.2 +24.9 +33.4
21 11.08 В 2 10 км 8/3 600 м
[Cu hum Ac trans]
+34.9 +28.3 69 +57 +61 опасность
перегрева
1014.4 1013.2
00 12.08 С 4 10 км дождь 6/1 600 м
[Cu hum Ci fib]
+31.2 +25.6 72 +46 +46 опасность
перегрева
1014.4 1013.1 +24.9 +35.2
03 12.08 ЮВ 2 5000 м ясно +28.5 +25.8 85 +42 +42 опасность
перегрева
1016.4 1015.1
06 12.08 ЮВ 2 5000 м ясно +26.9 +24.0 84 +37 +37 очень
душно
1017.0 1015.7 +24.9 +35.2
09 12.08 В 1 5000 м ясно +25.4 +23.7 90 +35 +35 очень
душно
1016.1 1014.8
12 12.08 В 1 10 км 1/0 2000 м
[Ac trans]
+24.5 +23.9 96 +33 +34 очень
душно
1016.5 1015.3 +24.2 +35.2
15 12.08 В 2 10 км 3/3 600 м
[Cu hum]
+29.8 +27.3 86 +47 +56 опасность
перегрева
1017.9 1016.7
18 12.08 В 2 10 км 4/4 600 м
[Cu hum]
+34.1 +28.7 74 +57 +70 опасность
перегрева
1016.8 1015.5 +24.2 +34.1
21 12.08 В 2 10 км 4/4 600 м
[Cu hum]
+35.4 +27.6 64 +55 +62 опасность
перегрева
1014.4 1013.0
00 13.08 В 2 10 км 9/0 2000 м
[As op Ci fib]
+27.6 +23.3 77 +37 +37 очень
душно
1014.4 1013.1 +24.2 +35.4
03 13.08 ЮВ 2 5000 м ясно +25.9 +21.9 79 +33 +33 очень
душно
1016.5 1015.3
06 13.08 ЮВ 2 5000 м ясно +25.0 +23.2 90 +33 +33 очень
душно
1017.5 1016.2 +24.2 +35.4
09 13.08 В 1 5000 м ясно +24.3 +23.3 94 +33 +33 очень
душно
1016.6 1015.3
12 13.08 В 1 10 км 1/0
[Ci fib]
+24.0 +23.1 95 +32 +32 очень
душно
1016.6 1015.4 +23.4 +35.4
15 13.08 ЮВ 3 10 км 3/1 600 м
[Cu hum Ci fib]
+29.8 +25.5 78 +44 +52 опасность
перегрева
1017.3 1016.1
18 13.08 В 2 10 км 4/4 600 м
[Cu hum]
+33.7 +26.7 67 +51 +64 опасность
перегрева
1015.6 1014.3 +23.4 +33.7
21 13.08 В 2 10 км 5/5 600 м
[Cu med, cong As op]
+35.5 +27.5 63 +54 +60 опасность
перегрева
1012.9 1011.6
00 14.08 ЮВ 4 10 км слабая морось 9/6 300 м
[Sc As op]
+25.0 +22.0 83 +32 +32 очень
душно
1015.9 1014.6 0.0
03 14.08 штиль 0 5000 м {морось} 3/0 2000 м
[Ac trans Ci fib]
+22.6 +22.3 98 +30 +30 очень
душно
1016.0 1014.8 1
06 14.08 СВ 1 5000 м {морось} 1/0
[Ci fib]
+23.2 +21.9 92 +31 +31 очень
душно
1016.0 1014.8 1
09 14.08 В 1 5000 м 1/0 2000 м
[Ac trans]
+23.2 +22.0 93 +32 +32 очень
душно
1015.3 1014.1
12 14.08 В 1 10 км 3/0 2000 м
[Ac trans Ci fib]
+23.2 +21.7 91 +31 +32 очень
душно
1016.1 1014.9 +22.5 +35.5
15 14.08 ЮВ 2 10 км 1/1 600 м
[Cu hum]
+28.7 +26.4 87 +44 +54 опасность
перегрева
1016.6 1015.3
18 14.08 В 3 10 км 1/1 600 м
[Cu hum]
+33.5 +27.5 71 +53 +69 опасность
перегрева
1015.1 1013.9 +22.5 +33.5
21 14.08 В 2 10 км 3/3 600 м
[Cu hum]
+34.4 +28.0 69 +55 +63 опасность
перегрева
1013.1 1011.9
00 15.08 В 3 10 км 3/3 600 м
[Cb cap]
+31.7 +22.9 60 +42 +42 опасность
перегрева
1013.4 1012.2 +22.5 +34.9
03 15.08 ЮВ 2 5000 м ясно +28.0 +22.8 73 +37 +37 очень
душно
1015.6 1014.3
09 15.08 В 1 5000 м ясно +25.4 +24.3 94 +35 +35 очень
душно
1014.8 1013.6
12 15.08 СВ 1 10 км 3/1 600 м
[Cu med, cong Ci fib]
+24.8 +23.9 95 +34 +34 очень
душно
1015.3 1014.0 +24.4 +34.9
15 15.08 ЮВ 2 10 км 4/4 600 м
[Cu hum]
+29.8 +26.8 84 +46 +54 опасность
перегрева
1016.8 1015.5
18 15.08 СВ 1 10 км 6/6 600 м
[Cu hum]
+34.4 +27.1 66 +53 +63 опасность
перегрева
1016.0 1014.7 +24.4 +34.5
21 15.08 СВ 1 10 км 8/8 600 м
[Cu med, cong]
+34.5 +27.0 65 +52 +55 опасность
перегрева
1013.7 1012.4
00 16.08 СВ 3 10 км 6/1 600 м
[Cu hum Ac trans Ci fib]
+31.7 +27.2 77 +50 +50 опасность
перегрева
1014.0 1012.7 +24.4 +35.5
03 16.08 В 3 5000 м 4/0 2000 м
[Ac trans]
+28.2 +25.0 83 +41 +41 опасность
перегрева
1015.4 1014.2

 

Местоположение метеостанции Merida (Мексика): широта 20.98 долгота -89.65 высота над уровнем моря 9 м.

В архиве по умолчанию представлена погода в Merida за последнюю неделю. Архивные данные за месяц целиком и за предыдущие месяцы, начиная с января 2011 года, Вы можете получить, выбрав интересующий диапазон дат из раскрывающегося списка и нажав кнопку "Ввод!".


*Определитесь, кто Вы:
робот инопланетянин человек

Внимание! Время в таблицах - всемирное. Для получения местного времени необходимо прибавить поправку, которая в Merida равна -6 ч.

Смотрите также архив погоды в соседних городах и на ближайших метеорологических станциях:

Погода в Merida 2 (Мексика) (6 км)
Погода в Progreso (Мексика) (36 км)
Погода в Valladolid (Мексика) (154 км)
Погода в Campeche (Мексика) (157 км)
Погода в Felipe Carrillo Puerto (Мексика) (231 км)
Погода в Chetumal (Мексика) (312 км)
Погода в Belize (Белиз) (409 км)
Погода в Flores (Гватемала) (452 км)
Погода в Villahermosa (Мексика) (479 км)
Погода в Cabo San Antonio (Куба) (497 км)

Пояснения к столбцам:

Ветер - указаны скорость ветра в м/с - средняя за 10 мин, порывы в срок и между сроками (в фигурных скобках) и направление, откуда дует ветер: С - северный, СВ - северо-восточный, В - восточный, ЮВ - юго-восточный, Ю - южный, ЮЗ - юго-западный, З - западный, СЗ - северо-западный.
Видимость - горизонтальная дальность видимости в метрах или километрах. При видимости от 1 до 10 км при отсутствии осадков обычно наблюдается дымка, при ухудшении видимости до 1 км и менее - туман. В сухую погоду видимость может ухудшаться дымом, пылью или мглою.
Явления - указаны атмосферные явления, наблюдавшиеся в срок или в последний час перед сроком; фигурными скобками обозначены явления, наблюдавшиеся между сроками (за 1-3 часа до срока); квадратными скобками обозначены град или гололедные отложения с указанием их диаметра в мм.
Облачность - указаны через наклонную черту общая и нижняя облачность в баллах и высота нижней границы облаков в метрах; квадратными скобками обозначены формы облаков: Ci - перистые, Cs - перисто-слоистые, Cc - перисто-кучевые, Ac - высококучевые, As - высокослоистые, Sc - слоисто-кучевые, Ns - слоисто-дождевые, Cu - кучевые, Cb - кучево-дождевые. Подробнее классификацию облаков см. в Атласе облаков (PDF).
T - Температура воздуха - температура, измеренная на высоте 2 м над землей.
Td - Температура точки росы - температура, при понижении до которой содержащийся в воздухе водяной пар достигнет насыщения.
f - Относительная влажность воздуха - влажноcть воздуха, измеренная на высоте 2 м над землей.
Te - Эффективная температура - температура, которую ощущает одетый по сезону человек в тени. Характеристика душности погоды. При расчете учитывается влияние влажности воздуха и скорости ветра на теплоощущения человека.
Tes - Эффективная температура на солнце - температура, которую ощущает человек, с поправкой на солнечный нагрев. Характеристика знойности погоды. Зависит от высоты солнца над горизонтом, облачности и скорости ветра. Ночью, в пасмурную погоду, а также при ветре 12 м/с и более поправка равна нулю.
P - Атмосферное давление - приведенное к уровню моря атмосферное давление.
Po - Атмосферное давление - измеренное на уровне метеостанции атмосферное давление.
Tmin - Минимальная температура - минимум температуры воздуха на высоте 2 м над землей.
Tmax - Максимальная температура - максимум температуры воздуха на высоте 2 м над землей.
R - Количество осадков - Количество выпавших осадков за период времени, мм. При наведении курсора мыши на число - период времени, за который выпало указанное количество осадков.
R24 - Количество осадков - Количество выпавших осадков за 24 часа, мм.
S - Снежный покров - Высота снежного покрова, см. При наведении курсора мыши на число - состояние снежного покрова и степень покрытия местности в баллах.